Year,Month,Day,Hour,Minute,Value (Times are PST for temperature in C)
2011,07,24,00,00,13.40
2011,07,24,00,01,13.40
2011,07,24,00,02,13.40
2011,07,24,00,03,13.30
2011,07,24,00,04,13.30
2011,07,24,00,05,13.30
2011,07,24,00,06,13.30
2011,07,24,00,07,13.30
2011,07,24,00,08,13.30
2011,07,24,00,09,13.20
2011,07,24,00,10,13.20
2011,07,24,00,11,13.20
2011,07,24,00,12,13.20
2011,07,24,00,13,13.20
2011,07,24,00,14,13.10
2011,07,24,00,15,13.10
2011,07,24,00,16,13.10
2011,07,24,00,17,13.10
2011,07,24,00,18,13.00
2011,07,24,00,19,13.00
2011,07,24,00,20,13.00
2011,07,24,00,21,13.00
2011,07,24,00,22,13.00
2011,07,24,00,23,12.90
2011,07,24,00,24,12.90
2011,07,24,00,25,12.90
2011,07,24,00,26,12.90
2011,07,24,00,27,12.80
2011,07,24,00,28,12.80
2011,07,24,00,29,12.80
2011,07,24,00,30,12.80
2011,07,24,00,31,12.80
2011,07,24,00,32,12.80
2011,07,24,00,33,12.80
2011,07,24,00,34,12.80
2011,07,24,00,35,12.80
2011,07,24,00,36,12.80
2011,07,24,00,37,12.80
2011,07,24,00,38,12.80
2011,07,24,00,39,12.80
2011,07,24,00,40,12.80
2011,07,24,00,41,12.80
2011,07,24,00,42,12.80
2011,07,24,00,43,12.80
2011,07,24,00,44,12.80
2011,07,24,00,45,12.80
2011,07,24,00,46,12.80
2011,07,24,00,47,12.80
2011,07,24,00,48,12.80
2011,07,24,00,49,12.80
2011,07,24,00,50,12.80
2011,07,24,00,51,12.80
2011,07,24,00,52,12.80
2011,07,24,00,53,12.80
2011,07,24,00,54,12.80
2011,07,24,00,55,12.70
2011,07,24,00,56,12.70
2011,07,24,00,57,12.70
2011,07,24,00,58,12.70
2011,07,24,00,59,12.60
2011,07,24,01,00,12.60
2011,07,24,01,01,12.60
2011,07,24,01,02,12.60
2011,07,24,01,03,12.50
2011,07,24,01,04,12.50
2011,07,24,01,05,12.50
2011,07,24,01,06,12.40
2011,07,24,01,07,12.40
2011,07,24,01,08,12.40
2011,07,24,01,09,12.40
2011,07,24,01,10,12.40
2011,07,24,01,11,12.40
2011,07,24,01,12,12.40
2011,07,24,01,13,12.40
2011,07,24,01,14,12.40
2011,07,24,01,15,12.40
2011,07,24,01,16,12.40
2011,07,24,01,17,12.40
2011,07,24,01,18,12.40
2011,07,24,01,19,12.40
2011,07,24,01,20,12.30
2011,07,24,01,21,12.30
2011,07,24,01,22,12.30
2011,07,24,01,23,12.30
2011,07,24,01,24,12.30
2011,07,24,01,25,12.30
2011,07,24,01,26,12.30
2011,07,24,01,27,12.30
2011,07,24,01,28,12.30
2011,07,24,01,29,12.30
2011,07,24,01,30,12.30
2011,07,24,01,31,12.20
2011,07,24,01,32,12.20
2011,07,24,01,33,12.20
2011,07,24,01,34,12.20
2011,07,24,01,35,12.10
2011,07,24,01,36,12.10
2011,07,24,01,37,12.10
2011,07,24,01,38,12.10
2011,07,24,01,39,12.00
2011,07,24,01,40,12.00
2011,07,24,01,41,12.00
2011,07,24,01,42,12.00
2011,07,24,01,43,12.00
2011,07,24,01,44,12.00
2011,07,24,01,45,11.90
2011,07,24,01,46,11.90
2011,07,24,01,47,11.90
2011,07,24,01,48,11.90
2011,07,24,01,49,11.90
2011,07,24,01,50,11.90
2011,07,24,01,51,11.80
2011,07,24,01,52,11.80
2011,07,24,01,53,11.80
2011,07,24,01,54,11.80
2011,07,24,01,55,11.80
2011,07,24,01,56,11.80
2011,07,24,01,57,11.80
2011,07,24,01,58,11.80
2011,07,24,01,59,11.80
2011,07,24,02,00,11.70
2011,07,24,02,01,11.70
2011,07,24,02,02,11.70
2011,07,24,02,03,11.70
2011,07,24,02,04,11.70
2011,07,24,02,05,11.70
2011,07,24,02,06,11.60
2011,07,24,02,07,11.60
2011,07,24,02,08,11.60
2011,07,24,02,09,11.60
2011,07,24,02,10,11.60
2011,07,24,02,11,11.60
2011,07,24,02,12,11.60
2011,07,24,02,13,11.60
2011,07,24,02,14,11.60
2011,07,24,02,15,11.50
2011,07,24,02,16,11.40
2011,07,24,02,17,11.40
2011,07,24,02,18,11.40
2011,07,24,02,19,11.40
2011,07,24,02,20,11.40
2011,07,24,02,21,11.40
2011,07,24,02,22,11.40
2011,07,24,02,23,11.40
2011,07,24,02,24,11.40
2011,07,24,02,25,11.40
2011,07,24,02,26,11.40
2011,07,24,02,27,11.40
2011,07,24,02,28,11.40
2011,07,24,02,29,11.40
2011,07,24,02,30,11.40
2011,07,24,02,31,11.40
2011,07,24,02,32,11.40
2011,07,24,02,33,11.30
2011,07,24,02,34,11.30
2011,07,24,02,35,11.30
2011,07,24,02,36,11.30
2011,07,24,02,37,11.30
2011,07,24,02,38,11.30
2011,07,24,02,39,11.20
2011,07,24,02,40,11.20
2011,07,24,02,41,11.20
2011,07,24,02,42,11.20
2011,07,24,02,43,11.20
2011,07,24,02,44,11.20
2011,07,24,02,45,11.20
2011,07,24,02,46,11.10
2011,07,24,02,47,11.10
2011,07,24,02,48,11.10
2011,07,24,02,49,11.10
2011,07,24,02,50,11.10
2011,07,24,02,51,11.10
2011,07,24,02,52,11.10
2011,07,24,02,53,11.10
2011,07,24,02,54,11.10
2011,07,24,02,55,11.10
2011,07,24,02,56,11.00
2011,07,24,02,57,10.90
2011,07,24,02,58,10.90
2011,07,24,02,59,10.90
2011,07,24,03,00,10.90
2011,07,24,03,01,10.90
2011,07,24,03,02,10.90
2011,07,24,03,03,10.90
2011,07,24,03,04,10.90
2011,07,24,03,05,10.90
2011,07,24,03,06,10.90
2011,07,24,03,07,10.90
2011,07,24,03,08,10.90
2011,07,24,03,09,10.90
2011,07,24,03,10,10.90
2011,07,24,03,11,10.90
2011,07,24,03,12,10.80
2011,07,24,03,13,10.80
2011,07,24,03,14,10.80
2011,07,24,03,15,10.80
2011,07,24,03,16,10.80
2011,07,24,03,17,10.70
2011,07,24,03,18,10.70
2011,07,24,03,19,10.70
2011,07,24,03,20,10.70
2011,07,24,03,21,10.70
2011,07,24,03,22,10.70
2011,07,24,03,23,10.70
2011,07,24,03,24,10.80
2011,07,24,03,25,10.80
2011,07,24,03,26,10.80
2011,07,24,03,27,10.80
2011,07,24,03,28,10.90
2011,07,24,03,29,10.90
2011,07,24,03,30,10.90
2011,07,24,03,31,10.90
2011,07,24,03,32,10.90
2011,07,24,03,33,10.90
2011,07,24,03,34,10.90
2011,07,24,03,35,10.90
2011,07,24,03,36,10.90
2011,07,24,03,37,10.90
2011,07,24,03,38,10.90
2011,07,24,03,39,10.90
2011,07,24,03,40,10.90
2011,07,24,03,41,10.90
2011,07,24,03,42,10.90
2011,07,24,03,43,10.90
2011,07,24,03,44,10.90
2011,07,24,03,45,10.90
2011,07,24,03,46,10.90
2011,07,24,03,47,10.90
2011,07,24,03,48,10.90
2011,07,24,03,49,10.80
2011,07,24,03,50,10.80
2011,07,24,03,51,10.70
2011,07,24,03,52,10.70
2011,07,24,03,53,10.70
2011,07,24,03,54,10.70
2011,07,24,03,55,10.60
2011,07,24,03,56,10.60
2011,07,24,03,57,10.60
2011,07,24,03,58,10.60
2011,07,24,03,59,10.60
2011,07,24,04,00,10.60
2011,07,24,04,01,10.60
2011,07,24,04,02,10.60
2011,07,24,04,03,10.60
2011,07,24,04,04,10.60
2011,07,24,04,05,10.60
2011,07,24,04,06,10.50
2011,07,24,04,07,10.40
2011,07,24,04,08,10.40
2011,07,24,04,09,10.40
2011,07,24,04,10,10.40
2011,07,24,04,11,10.40
2011,07,24,04,12,10.40
2011,07,24,04,13,10.40
2011,07,24,04,14,10.40
2011,07,24,04,15,10.40
2011,07,24,04,16,10.40
2011,07,24,04,17,10.40
2011,07,24,04,18,10.40
2011,07,24,04,19,10.40
2011,07,24,04,20,10.60
2011,07,24,04,21,10.60
2011,07,24,04,22,10.60
2011,07,24,04,23,10.60
2011,07,24,04,24,10.60
2011,07,24,04,25,10.60
2011,07,24,04,26,10.60
2011,07,24,04,27,10.60
2011,07,24,04,28,10.60
2011,07,24,04,29,10.60
2011,07,24,04,30,10.60
2011,07,24,04,31,10.60
2011,07,24,04,32,10.60
2011,07,24,04,33,10.60
2011,07,24,04,34,10.70
2011,07,24,04,35,10.70
2011,07,24,04,36,10.70
2011,07,24,04,37,10.80
2011,07,24,04,38,10.80
2011,07,24,04,39,10.90
2011,07,24,04,40,10.90
2011,07,24,04,41,10.90
2011,07,24,04,42,10.80
2011,07,24,04,43,10.80
2011,07,24,04,44,10.70
2011,07,24,04,45,10.70
2011,07,24,04,46,10.60
2011,07,24,04,47,10.60
2011,07,24,04,48,10.60
2011,07,24,04,49,10.60
2011,07,24,04,50,10.60
2011,07,24,04,51,10.60
2011,07,24,04,52,10.60
2011,07,24,04,53,10.60
2011,07,24,04,54,10.60
2011,07,24,04,55,10.60
2011,07,24,04,56,10.60
2011,07,24,04,57,10.60
2011,07,24,04,58,10.60
2011,07,24,04,59,10.60
2011,07,24,05,00,10.40
2011,07,24,05,01,10.40
2011,07,24,05,02,10.40
2011,07,24,05,03,10.40
2011,07,24,05,04,10.40
2011,07,24,05,05,10.40
2011,07,24,05,06,10.40
2011,07,24,05,07,10.40
2011,07,24,05,08,10.40
2011,07,24,05,09,10.40
2011,07,24,05,10,10.30
2011,07,24,05,11,10.30
2011,07,24,05,12,10.30
2011,07,24,05,13,10.30
2011,07,24,05,14,10.30
2011,07,24,05,15,10.20
2011,07,24,05,16,10.20
2011,07,24,05,17,10.20
2011,07,24,05,18,10.20
2011,07,24,05,19,10.20
2011,07,24,05,20,10.20
2011,07,24,05,21,10.20
2011,07,24,05,22,10.10
2011,07,24,05,23,10.10
2011,07,24,05,24,10.10
2011,07,24,05,25,10.10
2011,07,24,05,26,10.10
2011,07,24,05,27,10.10
2011,07,24,05,28,10.10
2011,07,24,05,29,10.10
2011,07,24,05,30,10.10
2011,07,24,05,31,10.10
2011,07,24,05,32,10.10
2011,07,24,05,33,10.10
2011,07,24,05,34,10.20
2011,07,24,05,35,10.20
2011,07,24,05,36,10.20
2011,07,24,05,37,10.20
2011,07,24,05,38,10.20
2011,07,24,05,39,10.20
2011,07,24,05,40,10.20
2011,07,24,05,41,10.20
2011,07,24,05,42,10.20
2011,07,24,05,43,10.20
2011,07,24,05,44,10.10
2011,07,24,05,45,10.10
2011,07,24,05,46,10.10
2011,07,24,05,47,10.10
2011,07,24,05,48,10.10
2011,07,24,05,49,10.10
2011,07,24,05,50,10.10
2011,07,24,05,51,10.10
2011,07,24,05,52,10.10
2011,07,24,05,53,10.10
2011,07,24,05,54,10.10
2011,07,24,05,55,10.10
2011,07,24,05,56,10.10
2011,07,24,05,57,10.10
2011,07,24,05,58,10.10
2011,07,24,05,59,10.10
2011,07,24,06,00,10.10
2011,07,24,06,01,10.10
2011,07,24,06,02,10.10
2011,07,24,06,03,10.10
2011,07,24,06,04,10.10
2011,07,24,06,05,10.10
2011,07,24,06,06,10.10
2011,07,24,06,07,10.10
2011,07,24,06,08,10.10
2011,07,24,06,09,10.10
2011,07,24,06,10,10.10
2011,07,24,06,11,10.10
2011,07,24,06,12,10.10
2011,07,24,06,13,10.10
2011,07,24,06,14,10.10
2011,07,24,06,15,10.10
2011,07,24,06,16,10.10
2011,07,24,06,17,10.10
2011,07,24,06,18,10.20
2011,07,24,06,19,10.20
2011,07,24,06,20,10.20
2011,07,24,06,21,10.30
2011,07,24,06,22,10.30
2011,07,24,06,23,10.40
2011,07,24,06,24,10.50
2011,07,24,06,25,10.60
2011,07,24,06,26,10.60
2011,07,24,06,27,10.70
2011,07,24,06,28,10.70
2011,07,24,06,29,10.80
2011,07,24,06,30,10.80
2011,07,24,06,31,10.90
2011,07,24,06,32,10.90
2011,07,24,06,33,10.90
2011,07,24,06,34,11.00
2011,07,24,06,35,11.10
2011,07,24,06,36,11.10
2011,07,24,06,37,11.20
2011,07,24,06,38,11.20
2011,07,24,06,39,11.30
2011,07,24,06,40,11.30
2011,07,24,06,41,11.40
2011,07,24,06,42,11.50
2011,07,24,06,43,11.60
2011,07,24,06,44,11.60
2011,07,24,06,45,11.70
2011,07,24,06,46,11.80
2011,07,24,06,47,11.90
2011,07,24,06,48,11.90
2011,07,24,06,49,12.00
2011,07,24,06,50,12.10
2011,07,24,06,51,12.20
2011,07,24,06,52,12.30
2011,07,24,06,53,12.40
2011,07,24,06,54,12.50
2011,07,24,06,55,12.60
2011,07,24,06,56,12.70
2011,07,24,06,57,12.80
2011,07,24,06,58,12.90
2011,07,24,06,59,13.00
2011,07,24,07,00,13.10
2011,07,24,07,01,13.20
2011,07,24,07,02,13.30
2011,07,24,07,03,13.40
2011,07,24,07,04,13.40
2011,07,24,07,05,13.50
2011,07,24,07,06,13.60
2011,07,24,07,07,13.70
2011,07,24,07,08,13.70
2011,07,24,07,09,13.80
2011,07,24,07,10,13.90
2011,07,24,07,11,13.90
2011,07,24,07,12,14.00
2011,07,24,07,13,14.10
2011,07,24,07,14,14.20
2011,07,24,07,15,14.30
2011,07,24,07,16,14.50
2011,07,24,07,17,14.70
2011,07,24,07,18,14.80
2011,07,24,07,19,15.00
2011,07,24,07,20,15.10
2011,07,24,07,21,15.30
2011,07,24,07,22,15.40
2011,07,24,07,23,15.50
2011,07,24,07,24,15.50
2011,07,24,07,25,15.60
2011,07,24,07,26,15.80
2011,07,24,07,27,15.90
2011,07,24,07,28,16.10
2011,07,24,07,29,16.20
2011,07,24,07,30,16.30
2011,07,24,07,31,16.40
2011,07,24,07,32,16.50
2011,07,24,07,33,16.70
2011,07,24,07,34,16.70
2011,07,24,07,35,16.70
2011,07,24,07,36,16.80
2011,07,24,07,37,16.90
2011,07,24,07,38,17.00
2011,07,24,07,39,17.10
2011,07,24,07,40,17.20
2011,07,24,07,41,17.30
2011,07,24,07,42,17.30
2011,07,24,07,43,17.30
2011,07,24,07,44,17.30
2011,07,24,07,45,17.40
2011,07,24,07,46,17.50
2011,07,24,07,47,17.60
2011,07,24,07,48,17.70
2011,07,24,07,49,17.80
2011,07,24,07,50,17.90
2011,07,24,07,51,18.10
2011,07,24,07,52,18.20
2011,07,24,07,53,18.30
2011,07,24,07,54,18.50
2011,07,24,07,55,18.60
2011,07,24,07,56,18.60
2011,07,24,07,57,18.70
2011,07,24,07,58,18.80
2011,07,24,07,59,18.90
2011,07,24,08,00,18.90
2011,07,24,08,01,19.00
2011,07,24,08,02,19.10
2011,07,24,08,03,19.10
2011,07,24,08,04,19.10
2011,07,24,08,05,19.10
2011,07,24,08,06,19.10
2011,07,24,08,07,19.20
2011,07,24,08,08,19.20
2011,07,24,08,09,19.20
2011,07,24,08,10,19.20
2011,07,24,08,11,19.20
2011,07,24,08,12,19.30
2011,07,24,08,13,19.30
2011,07,24,08,14,19.30
2011,07,24,08,15,19.40
2011,07,24,08,16,19.40
2011,07,24,08,17,19.40
2011,07,24,08,18,19.50
2011,07,24,08,19,19.50
2011,07,24,08,20,19.50
2011,07,24,08,21,19.60
2011,07,24,08,22,19.60
2011,07,24,08,23,19.70
2011,07,24,08,24,19.70
2011,07,24,08,25,19.70
2011,07,24,08,26,19.70
2011,07,24,08,27,19.60
2011,07,24,08,28,19.60
2011,07,24,08,29,19.60
2011,07,24,08,30,19.70
2011,07,24,08,31,19.70
2011,07,24,08,32,19.70
2011,07,24,08,33,19.80
2011,07,24,08,34,19.80
2011,07,24,08,35,19.90
2011,07,24,08,36,19.90
2011,07,24,08,37,19.90
2011,07,24,08,38,19.90
2011,07,24,08,39,20.00
2011,07,24,08,40,20.10
2011,07,24,08,41,20.00
2011,07,24,08,42,19.90
2011,07,24,08,43,20.00
2011,07,24,08,44,20.10
2011,07,24,08,45,20.10
2011,07,24,08,46,20.10
2011,07,24,08,47,20.20
2011,07,24,08,48,20.20
2011,07,24,08,49,20.20
2011,07,24,08,50,20.20
2011,07,24,08,51,20.20
2011,07,24,08,52,20.20
2011,07,24,08,53,20.20
2011,07,24,08,54,20.30
2011,07,24,08,55,20.30
2011,07,24,08,56,20.30
2011,07,24,08,57,20.40
2011,07,24,08,58,20.40
2011,07,24,08,59,20.50
2011,07,24,09,00,20.50
2011,07,24,09,01,20.50
2011,07,24,09,02,20.50
2011,07,24,09,03,20.40
2011,07,24,09,04,20.30
2011,07,24,09,05,20.30
2011,07,24,09,06,20.30
2011,07,24,09,07,20.30
2011,07,24,09,08,20.20
2011,07,24,09,09,20.20
2011,07,24,09,10,20.20
2011,07,24,09,11,20.20
2011,07,24,09,12,20.10
2011,07,24,09,13,20.10
2011,07,24,09,14,20.10
2011,07,24,09,15,20.00
2011,07,24,09,16,20.00
2011,07,24,09,17,20.10
2011,07,24,09,18,20.20
2011,07,24,09,19,20.20
2011,07,24,09,20,20.20
2011,07,24,09,21,20.30
2011,07,24,09,22,20.40
2011,07,24,09,23,20.60
2011,07,24,09,24,20.60
2011,07,24,09,25,20.70
2011,07,24,09,26,20.70
2011,07,24,09,27,20.80
2011,07,24,09,28,20.70
2011,07,24,09,29,20.60
2011,07,24,09,30,20.60
2011,07,24,09,31,20.60
2011,07,24,09,32,20.70
2011,07,24,09,33,20.80
2011,07,24,09,34,20.80
2011,07,24,09,35,20.80
2011,07,24,09,36,20.90
2011,07,24,09,37,20.80
2011,07,24,09,38,20.70
2011,07,24,09,39,20.70
2011,07,24,09,40,20.60
2011,07,24,09,41,20.60
2011,07,24,09,42,20.60
2011,07,24,09,43,20.50
2011,07,24,09,44,20.60
2011,07,24,09,45,20.60
2011,07,24,09,46,20.60
2011,07,24,09,47,20.70
2011,07,24,09,48,20.80
2011,07,24,09,49,20.80
2011,07,24,09,50,21.00
2011,07,24,09,51,21.10
2011,07,24,09,52,21.10
2011,07,24,09,53,21.00
2011,07,24,09,54,21.00
2011,07,24,09,55,21.00
2011,07,24,09,56,21.00
2011,07,24,09,57,21.00
2011,07,24,09,58,21.00
2011,07,24,09,59,21.00
2011,07,24,10,00,21.00
2011,07,24,10,01,21.00
2011,07,24,10,02,21.00
2011,07,24,10,03,21.00
2011,07,24,10,04,21.00
2011,07,24,10,05,21.10
2011,07,24,10,06,21.20
2011,07,24,10,07,21.30
2011,07,24,10,08,21.30
2011,07,24,10,09,21.30
2011,07,24,10,10,21.30
2011,07,24,10,11,21.30
2011,07,24,10,12,21.30
2011,07,24,10,13,21.30
2011,07,24,10,14,21.40
2011,07,24,10,15,21.50
2011,07,24,10,16,21.60
2011,07,24,10,17,21.60
2011,07,24,10,18,21.80
2011,07,24,10,19,21.90
2011,07,24,10,20,22.00
2011,07,24,10,21,22.00
2011,07,24,10,22,22.10
2011,07,24,10,23,22.10
2011,07,24,10,24,22.20
2011,07,24,10,25,22.20
2011,07,24,10,26,22.10
2011,07,24,10,27,22.00
2011,07,24,10,28,21.90
2011,07,24,10,29,21.70
2011,07,24,10,30,21.70
2011,07,24,10,31,21.70
2011,07,24,10,32,21.70
2011,07,24,10,33,21.60
2011,07,24,10,34,21.70
2011,07,24,10,35,21.80
2011,07,24,10,36,21.90
2011,07,24,10,37,22.00
2011,07,24,10,38,22.10
2011,07,24,10,39,22.20
2011,07,24,10,40,22.30
2011,07,24,10,41,22.40
2011,07,24,10,42,22.50
2011,07,24,10,43,22.60
2011,07,24,10,44,22.60
2011,07,24,10,45,22.60
2011,07,24,10,46,22.60
2011,07,24,10,47,22.60
2011,07,24,10,48,22.50
2011,07,24,10,49,22.50
2011,07,24,10,50,22.50
2011,07,24,10,51,22.50
2011,07,24,10,52,22.40
2011,07,24,10,53,22.30
2011,07,24,10,54,22.20
2011,07,24,10,55,22.20
2011,07,24,10,56,22.20
2011,07,24,10,57,22.10
2011,07,24,10,58,22.00
2011,07,24,10,59,22.00
2011,07,24,11,00,22.00
2011,07,24,11,01,21.80
2011,07,24,11,02,21.70
2011,07,24,11,03,21.60
2011,07,24,11,04,21.70
2011,07,24,11,05,21.80
2011,07,24,11,06,21.80
2011,07,24,11,07,21.90
2011,07,24,11,08,21.90
2011,07,24,11,09,22.00
2011,07,24,11,10,22.00
2011,07,24,11,11,22.10
2011,07,24,11,12,22.20
2011,07,24,11,13,22.30
2011,07,24,11,14,22.40
2011,07,24,11,15,22.40
2011,07,24,11,16,22.40
2011,07,24,11,17,22.40
2011,07,24,11,18,22.40
2011,07,24,11,19,22.20
2011,07,24,11,20,22.20
2011,07,24,11,21,22.20
2011,07,24,11,22,22.20
2011,07,24,11,23,22.20
2011,07,24,11,24,22.20
2011,07,24,11,25,22.30
2011,07,24,11,26,22.40
2011,07,24,11,27,22.40
2011,07,24,11,28,22.50
2011,07,24,11,29,22.50
2011,07,24,11,30,22.60
2011,07,24,11,31,22.70
2011,07,24,11,32,22.70
2011,07,24,11,33,22.60
2011,07,24,11,34,22.50
2011,07,24,11,35,22.50
2011,07,24,11,36,22.40
2011,07,24,11,37,22.40
2011,07,24,11,38,22.50
2011,07,24,11,39,22.60
2011,07,24,11,40,22.60
2011,07,24,11,41,22.70
2011,07,24,11,42,22.70
2011,07,24,11,43,22.60
2011,07,24,11,44,22.60
2011,07,24,11,45,22.70
2011,07,24,11,46,22.70
2011,07,24,11,47,22.80
2011,07,24,11,48,22.80
2011,07,24,11,49,22.70
2011,07,24,11,50,22.70
2011,07,24,11,51,22.70
2011,07,24,11,52,22.80
2011,07,24,11,53,22.90
2011,07,24,11,54,22.90
2011,07,24,11,55,22.90
2011,07,24,11,56,23.00
2011,07,24,11,57,23.10
2011,07,24,11,58,23.00
2011,07,24,11,59,22.90
2011,07,24,12,00,22.80
2011,07,24,12,01,22.70
2011,07,24,12,02,22.80
2011,07,24,12,03,23.00
2011,07,24,12,04,23.20
2011,07,24,12,05,23.30
2011,07,24,12,06,23.50
2011,07,24,12,07,23.60
2011,07,24,12,08,23.70
2011,07,24,12,09,23.70
2011,07,24,12,10,23.70
2011,07,24,12,11,23.70
2011,07,24,12,12,23.70
2011,07,24,12,13,23.70
2011,07,24,12,14,23.60
2011,07,24,12,15,23.70
2011,07,24,12,16,23.60
2011,07,24,12,17,23.40
2011,07,24,12,18,23.30
2011,07,24,12,19,23.30
2011,07,24,12,20,23.20
2011,07,24,12,21,23.30
2011,07,24,12,22,23.30
2011,07,24,12,23,23.30
2011,07,24,12,24,23.40
2011,07,24,12,25,23.50
2011,07,24,12,26,23.60
2011,07,24,12,27,23.60
2011,07,24,12,28,23.60
2011,07,24,12,29,23.70
2011,07,24,12,30,23.70
2011,07,24,12,31,23.70
2011,07,24,12,32,23.70
2011,07,24,12,33,23.80
2011,07,24,12,34,23.80
2011,07,24,12,35,23.90
2011,07,24,12,36,23.90
2011,07,24,12,37,23.90
2011,07,24,12,38,23.90
2011,07,24,12,39,24.00
2011,07,24,12,40,24.10
2011,07,24,12,41,24.10
2011,07,24,12,42,24.20
2011,07,24,12,43,24.30
2011,07,24,12,44,24.40
2011,07,24,12,45,24.50
2011,07,24,12,46,24.60
2011,07,24,12,47,24.60
2011,07,24,12,48,24.60
2011,07,24,12,49,24.50
2011,07,24,12,50,24.40
2011,07,24,12,51,24.40
2011,07,24,12,52,24.40
2011,07,24,12,53,24.40
2011,07,24,12,54,24.40
2011,07,24,12,55,24.40
2011,07,24,12,56,24.50
2011,07,24,12,57,24.70
2011,07,24,12,58,24.80
2011,07,24,12,59,25.00
2011,07,24,13,00,25.20
2011,07,24,13,01,25.40
2011,07,24,13,02,25.60
2011,07,24,13,03,25.60
2011,07,24,13,04,25.40
2011,07,24,13,05,25.20
2011,07,24,13,06,24.90
2011,07,24,13,07,24.80
2011,07,24,13,08,24.70
2011,07,24,13,09,24.70
2011,07,24,13,10,24.80
2011,07,24,13,11,24.90
2011,07,24,13,12,25.10
2011,07,24,13,13,25.30
2011,07,24,13,14,25.30
2011,07,24,13,15,25.40
2011,07,24,13,16,25.50
2011,07,24,13,17,25.60
2011,07,24,13,18,25.60
2011,07,24,13,19,25.60
2011,07,24,13,20,25.70
2011,07,24,13,21,25.70
2011,07,24,13,22,25.70
2011,07,24,13,23,25.80
2011,07,24,13,24,25.90
2011,07,24,13,25,26.00
2011,07,24,13,26,26.10
2011,07,24,13,27,26.10
2011,07,24,13,28,26.20
2011,07,24,13,29,26.20
2011,07,24,13,30,26.20
2011,07,24,13,31,26.20
2011,07,24,13,32,26.10
2011,07,24,13,33,26.00
2011,07,24,13,34,25.90
2011,07,24,13,35,25.80
2011,07,24,13,36,25.50
2011,07,24,13,37,25.40
2011,07,24,13,38,25.40
2011,07,24,13,39,25.50
2011,07,24,13,40,25.60
2011,07,24,13,41,25.60
2011,07,24,13,42,25.60
2011,07,24,13,43,25.60
2011,07,24,13,44,25.60
2011,07,24,13,45,25.60
2011,07,24,13,46,25.60
2011,07,24,13,47,25.50
2011,07,24,13,48,25.50
2011,07,24,13,49,25.40
2011,07,24,13,50,25.40
2011,07,24,13,51,25.40
2011,07,24,13,52,25.50
2011,07,24,13,53,25.60
2011,07,24,13,54,25.70
2011,07,24,13,55,25.80
2011,07,24,13,56,25.90
2011,07,24,13,57,26.00
2011,07,24,13,58,26.10
2011,07,24,13,59,26.20
2011,07,24,14,00,26.30
2011,07,24,14,01,26.40
2011,07,24,14,02,26.40
2011,07,24,14,03,26.40
2011,07,24,14,04,26.30
2011,07,24,14,05,26.30
2011,07,24,14,06,26.30
2011,07,24,14,07,26.30
2011,07,24,14,08,26.30
2011,07,24,14,09,26.30
2011,07,24,14,10,26.30
2011,07,24,14,11,26.30
2011,07,24,14,12,26.30
2011,07,24,14,13,26.30
2011,07,24,14,14,26.30
2011,07,24,14,15,26.40
2011,07,24,14,16,26.40
2011,07,24,14,17,26.40
2011,07,24,14,18,26.40
2011,07,24,14,19,26.40
2011,07,24,14,20,26.40
2011,07,24,14,21,26.40
2011,07,24,14,22,26.40
2011,07,24,14,23,26.30
2011,07,24,14,24,26.20
2011,07,24,14,25,26.20
2011,07,24,14,26,26.20
2011,07,24,14,27,26.00
2011,07,24,14,28,26.00
2011,07,24,14,29,26.10
2011,07,24,14,30,26.20
2011,07,24,14,31,26.10
2011,07,24,14,32,26.00
2011,07,24,14,33,25.90
2011,07,24,14,34,25.70
2011,07,24,14,35,25.60
2011,07,24,14,36,25.60
2011,07,24,14,37,25.60
2011,07,24,14,38,25.60
2011,07,24,14,39,25.70
2011,07,24,14,40,25.80
2011,07,24,14,41,25.90
2011,07,24,14,42,25.90
2011,07,24,14,43,26.00
2011,07,24,14,44,26.10
2011,07,24,14,45,26.30
2011,07,24,14,46,26.40
2011,07,24,14,47,26.40
2011,07,24,14,48,26.40
2011,07,24,14,49,26.30
2011,07,24,14,50,26.40
2011,07,24,14,51,26.40
2011,07,24,14,52,26.60
2011,07,24,14,53,26.70
2011,07,24,14,54,26.80
2011,07,24,14,55,26.80
2011,07,24,14,56,26.90
2011,07,24,14,57,27.00
2011,07,24,14,58,27.10
2011,07,24,14,59,27.30
2011,07,24,15,00,27.40
2011,07,24,15,01,27.60
2011,07,24,15,02,27.50
2011,07,24,15,03,27.30
2011,07,24,15,04,27.10
2011,07,24,15,05,27.00
2011,07,24,15,06,26.90
2011,07,24,15,07,26.80
2011,07,24,15,08,26.70
2011,07,24,15,09,26.70
2011,07,24,15,10,26.70
2011,07,24,15,11,26.70
2011,07,24,15,12,26.70
2011,07,24,15,13,26.70
2011,07,24,15,14,26.80
2011,07,24,15,15,26.80
2011,07,24,15,16,26.70
2011,07,24,15,17,26.80
2011,07,24,15,18,26.80
2011,07,24,15,19,27.00
2011,07,24,15,20,27.10
2011,07,24,15,21,27.20
2011,07,24,15,22,27.20
2011,07,24,15,23,27.30
2011,07,24,15,24,27.30
2011,07,24,15,25,27.40
2011,07,24,15,26,27.50
2011,07,24,15,27,27.30
2011,07,24,15,28,27.20
2011,07,24,15,29,27.10
2011,07,24,15,30,26.90
2011,07,24,15,31,26.60
2011,07,24,15,32,26.50
2011,07,24,15,33,26.30
2011,07,24,15,34,26.20
2011,07,24,15,35,26.00
2011,07,24,15,36,25.80
2011,07,24,15,37,25.70
2011,07,24,15,38,25.60
2011,07,24,15,39,25.50
2011,07,24,15,40,25.60
2011,07,24,15,41,25.60
2011,07,24,15,42,25.50
2011,07,24,15,43,25.40
2011,07,24,15,44,25.20
2011,07,24,15,45,25.20
2011,07,24,15,46,25.10
2011,07,24,15,47,25.10
2011,07,24,15,48,25.00
2011,07,24,15,49,25.00
2011,07,24,15,50,25.00
2011,07,24,15,51,25.10
2011,07,24,15,52,25.20
2011,07,24,15,53,25.20
2011,07,24,15,54,25.20
2011,07,24,15,55,25.20
2011,07,24,15,56,25.20
2011,07,24,15,57,25.10
2011,07,24,15,58,25.10
2011,07,24,15,59,25.20
2011,07,24,16,00,25.30
2011,07,24,16,01,25.30
2011,07,24,16,02,25.40
2011,07,24,16,03,25.30
2011,07,24,16,04,25.20
2011,07,24,16,05,25.10
2011,07,24,16,06,25.10
2011,07,24,16,07,25.10
2011,07,24,16,08,25.10
2011,07,24,16,09,25.10
2011,07,24,16,10,25.10
2011,07,24,16,11,25.10
2011,07,24,16,12,25.10
2011,07,24,16,13,25.20
2011,07,24,16,14,25.20
2011,07,24,16,15,25.30
2011,07,24,16,16,25.30
2011,07,24,16,17,25.40
2011,07,24,16,18,25.40
2011,07,24,16,19,25.40
2011,07,24,16,20,25.30
2011,07,24,16,21,25.20
2011,07,24,16,22,25.20
2011,07,24,16,23,25.20
2011,07,24,16,24,25.30
2011,07,24,16,25,25.40
2011,07,24,16,26,25.40
2011,07,24,16,27,25.40
2011,07,24,16,28,25.40
2011,07,24,16,29,25.50
2011,07,24,16,30,25.50
2011,07,24,16,31,25.60
2011,07,24,16,32,25.70
2011,07,24,16,33,25.70
2011,07,24,16,34,25.70
2011,07,24,16,35,25.60
2011,07,24,16,36,25.60
2011,07,24,16,37,25.70
2011,07,24,16,38,25.70
2011,07,24,16,39,25.70
2011,07,24,16,40,25.70
2011,07,24,16,41,25.70
2011,07,24,16,42,25.70
2011,07,24,16,43,25.70
2011,07,24,16,44,25.70
2011,07,24,16,45,25.70
2011,07,24,16,46,25.70
2011,07,24,16,47,25.70
2011,07,24,16,48,25.70
2011,07,24,16,49,25.60
2011,07,24,16,50,25.60
2011,07,24,16,51,25.60
2011,07,24,16,52,25.70
2011,07,24,16,53,25.70
2011,07,24,16,54,25.70
2011,07,24,16,55,25.70
2011,07,24,16,56,25.70
2011,07,24,16,57,25.70
2011,07,24,16,58,25.60
2011,07,24,16,59,25.50
2011,07,24,17,00,25.40
2011,07,24,17,01,25.30
2011,07,24,17,02,25.20
2011,07,24,17,03,25.30
2011,07,24,17,04,25.30
2011,07,24,17,05,25.30
2011,07,24,17,06,25.30
2011,07,24,17,07,25.20
2011,07,24,17,08,25.10
2011,07,24,17,09,25.10
2011,07,24,17,10,25.10
2011,07,24,17,11,25.10
2011,07,24,17,12,25.10
2011,07,24,17,13,25.00
2011,07,24,17,14,25.00
2011,07,24,17,15,25.00
2011,07,24,17,16,25.00
2011,07,24,17,17,25.00
2011,07,24,17,18,24.90
2011,07,24,17,19,24.90